Simultaneous Nadir Overpasses (SNOs) Predictions

Prediction of SNOs between METOP-A and NPP Satellite Orbit:

Table of predicted SNOs for the next 14.0 days since TLE Epoch: 11/2/2018
Index Date (METOP-A) Time (METOP-A) Lat,Lon (METOP-A) SZA (METOP-A ) Date (NPP) Time (NPP) Lat,Lon (NPP) SZA (NPP ) Distance(km) Time Diff (sec)
1 11/08/2018 14:56:30 74.39, -52.53 91.02 11/08/2018 14:55:24 74.43, -55.68 91.15 94.33 66
2 11/08/2018 15:47:13 -74.32, 114.61 89.05 11/08/2018 15:46:05 -74.28, 112.00 89.00 78.68 68
3 11/08/2018 16:37:58 74.06, -78.68 90.73 11/08/2018 16:36:47 74.09, -80.20 90.80 46.30 71
4 11/08/2018 17:28:41 -73.99, 88.47 89.33 11/08/2018 17:27:29 -73.99, 87.35 89.29 34.42 72
5 11/08/2018 18:19:25 73.79,-104.68 90.49 11/08/2018 18:18:11 73.80,-104.86 90.51 5.55 74
6 11/08/2018 19:10:07 -73.77, 62.60 89.53 11/08/2018 19:08:54 -73.75, 62.56 89.53 1.90 73
7 11/08/2018 20:00:47 73.76,-130.09 90.48 11/08/2018 19:59:40 73.75,-130.13 90.48 1.39 67
8 11/08/2018 20:51:29 -73.74, 37.19 89.53 11/08/2018 20:50:24 -73.76, 37.17 89.51 2.19 65
9 11/08/2018 21:42:09 73.73,-155.50 90.47 11/08/2018 21:41:10 73.76,-155.51 90.51 2.97 59
10 11/08/2018 22:32:50 -73.76, 11.90 89.50 11/08/2018 22:31:54 -73.76, 11.79 89.48 3.35 56
11 11/08/2018 23:23:30 73.75, 179.21 90.51 11/08/2018 23:22:40 73.76, 179.10 90.53 3.55 50
12 11/09/2018 00:14:12 -73.73, -13.51 89.50 11/09/2018 00:13:23 -73.72, -13.48 89.51 1.75 49
13 11/09/2018 01:04:52 73.72, 153.80 90.51 11/09/2018 01:04:09 73.71, 153.83 90.50 1.17 43
14 11/09/2018 01:55:34 -73.70, -38.92 89.51 11/09/2018 01:54:53 -73.72, -38.86 89.49 2.81 41
15 11/09/2018 02:46:13 73.74, 128.51 90.54 11/09/2018 02:45:39 73.72, 128.45 90.53 3.13 34
16 11/09/2018 03:36:55 -73.72, -64.21 89.47 11/09/2018 03:36:23 -73.73, -64.25 89.46 1.34 32
17 11/09/2018 04:27:35 73.71, 103.10 90.54 11/09/2018 04:27:09 73.72, 103.06 90.55 1.82 26
18 11/09/2018 05:18:17 -73.69, -89.62 89.48 11/09/2018 05:17:52 -73.68, -89.52 89.49 3.32 25
19 11/09/2018 06:08:57 73.68, 77.70 90.53 11/09/2018 06:08:38 73.68, 77.79 90.53 3.10 19
20 11/09/2018 06:59:38 -73.71,-114.91 89.44 11/09/2018 06:59:22 -73.68,-114.90 89.46 3.16 16
21 11/09/2018 07:50:18 73.70, 52.40 90.57 11/09/2018 07:50:08 73.68, 52.41 90.55 2.27 10
22 11/09/2018 08:41:00 -73.68,-140.31 89.44 11/09/2018 08:40:52 -73.69,-140.29 89.44 0.97 8
23 11/09/2018 09:31:39 73.67, 27.00 90.56 11/09/2018 09:31:37 73.69, 27.02 90.58 1.71 2
24 11/09/2018 10:22:20 -73.71,-165.61 89.40 11/09/2018 10:22:21 -73.69,-165.67 89.41 2.48 1
25 11/09/2018 11:13:00 73.70, 1.71 90.60 11/09/2018 11:13:07 73.69, 1.64 90.60 2.14 7
26 11/09/2018 12:03:42 -73.68, 168.99 89.41 11/09/2018 12:03:51 -73.70, 168.94 89.39 2.87 9
27 11/09/2018 12:54:22 73.67, -23.70 90.60 11/09/2018 12:54:36 73.65, -23.63 90.57 3.03 14
28 11/09/2018 13:45:04 -73.65, 143.58 89.42 11/09/2018 13:45:20 -73.65, 143.67 89.42 2.91 16
29 11/09/2018 14:35:44 73.64, -49.11 90.59 11/09/2018 14:36:06 73.65, -49.02 90.60 3.34 22
30 11/09/2018 15:26:25 -73.67, 118.29 89.38 11/09/2018 15:26:50 -73.66, 118.29 89.39 1.15 25
31 11/09/2018 16:17:05 73.66, -74.40 90.63 11/09/2018 16:17:36 73.66, -74.40 90.62 0.13 31
32 11/09/2018 17:07:47 -73.64, 92.88 89.39 11/09/2018 17:08:20 -73.66, 92.90 89.37 2.64 33
33 11/09/2018 17:58:26 73.68, -99.69 90.67 11/09/2018 17:59:06 73.66, -99.79 90.65 3.54 40
34 11/09/2018 18:49:08 -73.66, 67.59 89.35 11/09/2018 18:49:50 -73.67, 67.52 89.34 2.47 42
35 11/09/2018 19:39:48 73.65,-125.10 90.66 11/09/2018 19:40:36 73.67,-125.17 90.67 2.95 48
36 11/09/2018 20:30:30 -73.63, 42.18 89.35 11/09/2018 20:31:19 -73.62, 42.25 89.37 2.19 49
37 11/09/2018 21:21:10 73.62,-150.51 90.65 11/09/2018 21:22:05 73.62,-150.44 90.65 2.01 55
38 11/09/2018 22:11:51 -73.65, 16.89 89.31 11/09/2018 22:12:49 -73.63, 16.86 89.34 3.01 58
39 11/09/2018 23:02:31 73.64,-175.80 90.69 11/09/2018 23:03:35 73.63,-175.83 90.67 1.96 64
40 11/09/2018 23:53:13 -73.62, -8.51 89.32 11/09/2018 23:54:19 -73.63, -8.52 89.32 0.94 66
41 11/10/2018 00:43:53 73.61, 158.79 90.68 11/10/2018 00:45:05 73.63, 158.79 90.69 2.05 72
42 11/10/2018 01:34:35 -73.59, -33.92 89.33 11/10/2018 01:35:48 -73.59, -33.79 89.35 4.05 73
43 11/10/2018 02:25:19 73.38, 132.94 90.49 11/10/2018 02:26:31 73.44, 133.86 90.51 29.93 72
44 11/10/2018 03:16:02 -73.31, -59.88 89.57 11/10/2018 03:17:13 -73.34, -58.61 89.59 40.71 71
45 11/10/2018 04:06:47 73.05, 106.88 90.20 11/10/2018 04:07:54 73.09, 109.25 90.16 77.17 67
46 11/10/2018 04:57:30 -72.98, -85.94 89.86 11/10/2018 04:58:37 -73.05, -83.34 89.88 84.76 67




NCC Satellite Simultaneous Nadir Overpasses (SNOs) Prediction Service
